Dewpoint
33 30 28 27 25 23 23 21 19 18 17 17 16 16 17 17 17 17 17 17 17 17 17 17 17 17 16 16 16 15 15 16 14 13 13 12 12 13 14 16 17 15 15
31 27 26 24 23 22 21 19 19 17 17 16 16 17 17 17 18 16 16 17 16 15 15 15 15 14 14 14 14 13 14 15 13 11 11 11 12 13 15 15 14 14 14
29 27 25 23 22 22 20 18 17 16 16 17 17 17 17 17 17 17 16 16 16 15 15 14 14 15 15 14 13 13 13 11 13 13 11 13 14 14 14 15 15 15 14
29 27 25 23 22 21 20 18 17 16 16 16 17 17 18 17 16 16 15 16 16 16 16 15 14 15 15 15 14 14 13 14 14 13 13 13 14 15 15 15 13 14 13
28 27 26 24 22 21 20 19 18 17 16 16 17 18 18 17 14 15 14 17 15 15 16 15 15 16 18 18 15 15 15 15 15 15 14 14 13 14 15 15 15 14 14
27 27 26 24 22 23 21 20 18 17 18 18 17 17 17 13 20 21 17 16 15 13 14 15 16 20 20 22 22 21 17 15 5 8 14 14 14 15 16 15 15 15 11
28 27 25 24 23 22 21 20 18 18 18 17 17 17 17 15 22 25 23 16 15 13 13 13 14 14 18 15 20 23 23 25 23 16 16 16 15 17 16 17 17 14 12
27 26 25 24 24 23 21 20 19 18 18 18 18 18 17 17 23 26 28 19 15 15 13 14 13 14 15 14 14 15 15 15 15 14 15 16 17 17 19 21 16 9 9
26 25 25 24 24 22 22 20 20 20 20 21 23 23 22 21 23 29 30 24 19 16 14 14 15 15 17 20 18 16 16 16 18 21 22 23 25 29 23 14 -0 -4 2
25 24 24 25 25 24 23 23 23 23 24 24 25 25 24 24 26 32 31 25 23 21 19 16 21 17 20 22 20 17 15 16 17 16 17 20 19 13 15 11 10 -1 2
25 24 24 24 26 25 25 25 26 26 25 25 24 24 25 24 25 31 31 24 23 22 21 20 18 22 24 25 25 20 18 19 17 19 15 15 13 11 10 8 6 8 7
24 24 25 27 27 27 27 27 27 26 25 24 24 24 23 23 25 28 26 26 26 23 21 20 19 22 23 24 23 24 24 24 21 11 9 9 9 9 8 8 8 8 8
24 25 27 28 28 29 28 27 26 26 26 25 23 23 22 19 19 25 25 26 26 25 23 22 22 23 24 24 25 24 24 24 16 10 8 9 8 8 6 7 8 8 7
29 29 29 29 29 29 30 28 28 26 25 24 22 23 22 17 17 16 19 22 23 24 23 19 23 25 26 25 20 21 21 20 17 15 14 12 8 8 7 6 3 3 -1
29 26 28 28 27 26 24 25 25 22 26 24 23 22 17 15 16 18 17 13 13 15 9 2 6 8 8 10 11 16 18 18 15 14 12 9 7 7 5 5 3 -5 -9
22 22 23 22 21 21 19 18 21 21 23 22 22 18 13 18 19 21 22 21 20 19 7 4 5 8 12 13 13 12 9 9 9 9 7 7 6 5 3 1 0 -9 -10
19 18 18 17 17 16 16 16 17 20 24 24 23 21 19 19 20 20 20 21 22 19 12 5 3 0 0 4 4 4 4 5 6 3 4 2 4 1 -0 -5 -5 -5 -11
13 13 13 12 13 13 13 13 15 16 14 10 21 23 24 22 22 22 21 15 7 6 4 2 -1 -3 -7 -7 -6 -6 -6 -4 -3 -2 -2 -3 -4 -5 -8 -12 -9 -11 -9
10 9 9 8 9 9 9 7 7 7 7 5 7 11 11 19 18 15 11 2 -1 -4 -7 -12 -18 -19 -18 -20 -20 -19 -16 -14 -13 -15 -16 -14 -10 -10 -12 -9 -7 -6 -6
4 7 3 3 2 2 3 2 1 -0 0 1 -2 -6 -8 -4 -5 -9 -9 -10 -8 -9 -12 -21 -25 -28 -28 -27 -26 -25 -23 -23 -23 -23 -22 -16 -10 -9 -8 -10 -9 -9 -9
-1 -0 -1 -2 -4 -5 -5 -3 -2 -3 -4 -7 -7 -2 5 -1 -2 -9 -14 -17 -18 -23 -25 -27 -27 -29 -30 -30 -29 -27 -27 -21 -25 -24 -22 -19 -14 -18 -11 -9 -8 -9 -9
-5 -7 -7 -8 -7 -5 -7 -6 -6 -6 -6 -3 -3 -1 8 -6 -10 -11 -13 -21 -25 -26 -28 -28 -29 -30 -28 -27 -26 -25 -24 -22 -25 -25 -21 -19 -19 -16 -13 -10 -11 -10 -12
-7 -7 -8 -11 -9 -9 -10 -10 -6 -6 -7 -8 -9 -8 -11 -15 -13 -15 -19 -25 -27 -26 -30 -32 -30 -26 -26 -26 -25 -19 -18 -18 -18 -22 -19 -21 -19 -15 -13 -13 -13 -16 -20
-10 -10 -10 -14 -13 -13 -13 -16 -14 -12 -11 -14 -18 -17 -13 -16 -20 -22 -25 -27 -27 -29 -32 -31 -27 -24 -24 -24 -27 -27 -24 -20 -24 -19 -16 -16 -16 -13 -12 -14 -17 -22 -25
-16 -14 -15 -16 -18 -18 -18 -19 -17 -19 -19 -16 -15 -16 -17 -19 -19 -20 -19 -25 -27 -28 -24 -25 -25 -23 -21 -20 -21 -24 -24 -11 -18 -18 -22 -21 -21 -19 -23 -28 -29 -31 -28
-19 -19 -21 -22 -22 -23 -21 -18 -19 -15 -14 -12 -14 -16 -16 -16 -16 -21 -23 -25 -24 -23 -23 -22 -22 -21 -20 -19 -19 -16 -15 -9 -12 -12 -18 -18 -20 -23 -28 -29 -32 -29 -25
Lifted_Index
10 9 9 8 8 8 8 8 7 8 10 13 15 16 16 16 15 15 16 16 17 17 18 18 18 19 19 19 19 20 20 19 18 18 19 19 18 18 17 17 16 15 14
10 10 9 8 8 8 8 8 7 8 10 14 16 16 16 16 16 16 16 16 17 17 17 18 18 18 19 19 19 19 19 19 18 18 18 18 17 17 16 16 15 14 14
11 10 9 8 8 8 8 7 7 8 11 15 16 16 16 16 17 17 17 17 17 17 18 18 18 18 18 18 18 18 18 18 18 17 17 17 16 16 15 14 14 13 12
11 10 9 9 8 8 7 7 8 9 12 16 17 17 17 17 17 18 18 18 17 18 18 18 18 18 18 18 18 18 17 17 17 17 16 16 15 15 14 13 12 11 11
10 10 10 9 8 8 8 7 8 10 14 17 18 18 18 18 18 18 18 18 18 17 18 18 18 18 18 18 17 17 17 16 16 15 14 14 13 13 13 12 11 10 10
9 9 9 9 9 8 8 7 8 10 14 17 18 18 18 19 19 19 18 18 17 17 18 18 18 18 18 17 17 17 16 16 15 14 13 12 12 12 12 11 10 9 9
8 8 9 9 9 8 8 8 8 11 14 17 18 18 19 19 19 19 18 17 16 17 17 17 17 17 17 17 17 16 15 15 14 13 12 12 12 12 11 11 10 9 9
7 7 8 9 9 9 8 8 9 11 14 17 18 19 19 18 18 18 17 16 16 17 17 17 17 16 16 16 16 15 14 13 13 13 12 12 12 12 12 11 10 9 9
6 7 8 10 10 9 8 8 10 12 15 17 18 18 18 17 17 17 16 15 15 16 17 16 16 16 16 16 15 13 12 12 12 12 12 12 12 12 12 12 10 9 8
7 8 10 11 11 10 10 10 11 14 16 17 17 17 17 16 16 16 15 14 15 16 16 16 16 15 15 14 13 12 11 11 11 11 11 11 11 12 12 12 11 9 9
10 10 11 12 12 12 11 12 14 15 17 17 16 15 16 16 16 15 14 15 16 16 15 15 15 14 13 12 12 11 10 11 10 10 10 10 10 11 12 12 11 11 11
12 12 13 14 14 13 13 14 15 16 16 16 14 14 14 15 15 14 14 16 16 15 14 14 13 13 12 11 11 11 11 11 10 9 9 9 10 11 11 12 12 12 12
12 12 13 13 13 13 14 14 15 15 15 14 13 12 13 14 14 14 15 15 15 14 13 13 12 11 11 10 10 10 11 11 10 10 9 10 10 11 11 11 12 12 12
11 11 11 11 11 12 13 13 13 13 13 12 12 12 12 13 13 14 14 14 14 13 12 12 11 10 10 10 10 10 11 11 10 10 10 10 11 11 11 11 12 12 12
11 11 10 10 11 11 12 12 12 12 12 12 13 13 13 13 13 13 13 12 11 11 11 10 10 9 9 9 9 10 10 10 10 11 11 11 11 11 12 12 12 12 12
12 12 12 12 12 12 12 12 13 13 14 14 14 14 14 13 13 12 11 11 10 10 9 9 8 8 8 8 8 9 10 10 11 11 12 12 12 13 13 13 13 13 13
14 14 14 13 13 13 14 14 14 14 14 14 14 13 13 12 12 11 10 10 10 9 9 8 8 8 8 8 9 9 10 11 12 12 13 13 14 14 15 15 14 14 14
14 14 14 14 14 14 14 14 14 13 13 13 13 12 12 11 11 11 10 10 9 9 8 8 9 9 9 10 10 11 12 12 13 14 14 15 16 16 16 16 15 15 15
14 14 14 13 13 13 13 13 12 12 12 11 11 11 11 11 10 10 10 9 9 9 9 9 10 11 11 11 12 12 13 13 14 15 15 16 17 17 17 17 16 16 15
13 12 12 12 12 12 11 11 11 11 10 10 10 10 11 10 10 10 10 10 9 9 10 11 11 12 12 13 13 13 14 14 15 16 16 17 17 17 17 17 16 16 15
11 11 11 11 11 10 10 10 10 10 9 9 10 10 10 10 10 10 10 10 10 11 11 12 12 13 13 13 14 14 15 15 16 16 17 17 17 17 17 17 16 15 15
10 10 10 10 10 10 10 10 10 9 9 9 10 10 11 11 10 10 10 11 11 12 13 13 13 14 14 14 15 15 15 16 16 16 16 17 17 16 16 16 15 15 14
10 10 10 10 10 10 9 9 9 10 10 10 10 11 11 11 11 11 11 12 12 13 14 14 14 14 15 15 16 16 16 16 16 16 16 16 16 15 15 15 14 14 14
10 10 9 9 9 9 10 10 10 10 11 11 11 11 11 11 11 12 12 13 14 14 15 15 15 15 15 16 16 16 16 16 16 16 16 16 15 15 14 14 14 15 15
10 10 10 10 10 10 10 10 11 11 11 11 11 11 11 11 12 13 13 14 14 15 15 15 15 15 15 16 16 16 16 16 16 16 16 16 15 15 15 15 15 15 15
10 10 10 10 11 11 11 11 11 10 10 10 11 11 11 12 12 13 14 14 14 14 14 14 15 15 15 15 16 16 16 16 16 16 16 16 15 15 15 15 15 15 15